Location: *
(53.9002°N, 27.5624°E)
Time: 14:32:31
(UTC+00:00)

ATLAS 5 CENTAUR R/B - Pass Details

Date: 12 November 2019
Orbit: 563 x 1096 km, 63.3° (Epoch: 29 November)

Event Time Altitude Azimuth Distance (km) Brightness Sun altitude
Rises 16:46:14 0° 310° (NW) 3,274 6.0 -21.9°
Reaches altitude 10° 16:48:35 10° 304° (NW) 2,422 5.3 -22.3°
Maximum altitude 16:53:58 46° 233° (SW) 1,198 3.3 -23.1°
Drops below altitude 10° 17:00:05 10° 162° (SSE) 2,753 4.7 -24.0°
Enters shadow 17:00:29 - 162° (SSE) 2,889 4.8 -24.0°
